Presure
160 162 156 143 127 137 146 143 143 134 145 149 132 149 150 152 151 152 153 157 155 156 140 125 157 165 160 157 150 132 160 162 166 150 169 168 164 158 170 171 161 121 165
133 85 132 152 132 144 116 158 152 139 153 151 145 157 154 151 147 150 140 109 155 145 142 153 152 155 158 145 164 162 157 158 158 150 152 156 167 169 174 175 162 167 164
144 103 89 92 100 114 143 144 159 157 151 144 147 148 136 149 153 147 92 103 153 142 142 144 164 171 152 155 155 167 141 153 113 149 145 162 126 136 182 199 86 142 211
147 165 128 139 101 150 111 140 161 135 171 152 147 154 158 150 147 147 149 121 156 145 152 163 168 165 151 159 166 152 157 156 141 136 169 167 171 176 213 238 228 187 225
158 143 95 155 153 105 154 135 142 142 149 146 163 165 155 156 111 124 143 148 153 143 117 147 161 151 157 170 149 155 159 134 139 167 171 172 182 220 231 125 197 167 127
119 149 147 122 130 121 168 121 130 134 89 136 147 91 90 92 138 146 156 161 163 159 169 167 199 145 155 144 152 157 192 189 185 173 171 169 189 234 223 222 126 134 119
107 138 116 148 168 150 166 171 178 169 134 168 156 120 97 144 181 96 95 152 125 125 158 198 136 149 147 147 154 193 190 163 171 160 171 126 211 139 143 88 204 178 127
96 114 118 99 123 103 140 167 173 177 172 167 169 131 169 168 94 89 190 123 163 137 172 184 133 145 145 164 170 242 195 169 171 167 180 251 239 204 157 98 133 125 199
90 130 154 104 107 126 167 122 162 132 181 162 164 126 142 185 179 163 174 162 137 104 195 174 130 196 103 102 103 224 168 172 170 172 256 238 232 153 143 132 89 88 202
71 157 102 89 125 95 104 122 181 117 141 188 137 175 140 166 167 180 215 151 104 108 144 241 247 243 189 104 104 110 123 128 170 258 249 237 226 217 203 89 84 207 198
92 99 122 96 85 97 104 171 138 128 139 167 176 180 135 186 160 207 207 195 155 194 252 152 246 179 211 208 169 173 163 157 269 259 239 224 209 94 137 88 201 144 199
134 120 87 84 92 91 90 90 113 92 91 109 127 111 195 184 187 169 201 211 208 222 250 241 237 194 213 165 165 168 160 163 236 254 235 219 142 89 91 211 93 100 102
159 172 87 92 87 88 101 83 91 91 94 92 86 86 199 208 84 84 117 167 265 216 239 144 220 148 142 157 176 148 169 179 163 192 207 88 154 161 104 208 106 101 198
95 187 180 87 92 88 86 91 80 88 85 82 151 171 93 135 103 101 230 207 231 239 142 210 141 141 160 183 154 159 208 168 232 169 165 171 167 113 111 100 152 214 170
90 112 126 84 90 86 89 82 88 94 119 80 101 87 92 150 95 142 89 108 173 130 134 174 205 158 164 177 178 161 173 186 165 168 136 140 219 132 97 159 155 160 164
110 128 113 87 89 87 89 91 81 85 98 83 98 91 191 111 117 224 170 125 117 118 142 121 126 163 178 186 179 175 170 175 172 163 131 148 170 166 115 149 158 168 154
102 194 193 192 111 86 91 90 84 186 100 121 93 109 97 94 100 210 236 182 215 212 155 200 200 128 190 136 186 178 173 169 169 117 138 171 167 95 100 173 171 149 153
97 102 107 107 84 85 143 116 151 102 119 158 169 201 96 97 141 234 197 216 209 203 204 205 195 199 190 147 190 184 143 142 128 153 114 154 158 102 183 179 168 162 160
107 143 102 190 146 160 180 175 195 105 100 118 84 116 211 99 222 226 217 213 206 201 166 172 195 186 184 182 186 189 163 148 131 111 113 124 169 170 163 159 162 156 167
109 117 124 115 185 110 190 195 94 79 115 108 193 111 203 225 225 215 208 211 197 200 196 193 193 192 185 184 179 163 173 207 177 122 195 198 197 190 186 192 180 153 176
108 105 113 115 105 204 93 89 79 98 104 214 193 184 226 223 218 206 203 203 208 207 204 203 204 203 202 205 210 210 207 206 206 207 206 205 205 206 210 208 210 202 199
102 98 92 123 84 120 84 96 85 103 209 182 184 194 201 199 208 214 199 196 194 194 195 196 194 192 192 192 192 192 192 195 186 186 188 187 190 189 187 187 185 183 183
89 101 175 123 115 159 153 207 156 112 197 183 194 191 188 191 182 185 184 184 186 187 186 184 181 181 188 188 182 179 159 178 173 196 176 191 202 181 196 184 194 197 169
154 134 216 108 125 119 129 105 107 141 179 144 190 187 180 181 185 184 183 131 180 176 175 171 182 183 191 178 181 178 177 195 174 183 188 178 187 185 188 189 193 192 199
145 218 197 106 105 104 112 100 199 166 191 190 185 180 177 182 180 179 178 170 164 182 167 180 178 176 180 179 185 186 190 197 195 167 180 185 181 179 183 194 199 202 200
208 197 108 116 113 134 192 193 183 192 191 184 183 179 177 146 178 178 179 167 172 171 182 175 185 177 190 172 185 171 173 185 189 191 188 180 179 189 189 193 196 223 258
Wind_Speed
46 47 44 40 26 32 35 33 33 28 34 37 30 39 39 40 40 41 41 42 42 42 38 33 46 51 49 47 45 38 50 51 54 47 57 57 58 60 63 63 65 41 71
30 6 30 45 29 38 20 45 40 32 40 39 35 43 42 40 39 40 36 25 44 38 38 45 45 48 49 44 52 53 52 51 53 50 51 53 61 64 63 65 62 67 72
40 18 10 12 19 17 34 35 49 45 42 37 39 41 34 43 45 39 19 25 45 39 41 43 53 55 47 48 48 54 46 51 34 50 49 59 40 47 68 71 23 45 58
43 52 30 34 15 44 16 34 51 30 50 46 41 47 51 42 39 42 40 31 44 42 46 54 55 51 46 51 54 49 51 51 46 46 62 62 63 67 72 56 58 48 55
53 42 14 46 48 17 52 32 35 37 42 38 52 53 47 48 27 32 40 45 47 43 34 48 52 45 48 58 48 50 52 44 47 57 61 62 68 63 61 43 49 48 43
27 46 45 22 29 24 62 25 26 29 17 33 41 21 20 21 41 46 51 55 56 53 59 57 67 42 47 45 49 53 65 64 64 60 60 59 68 56 60 50 43 46 41
18 40 22 44 54 49 59 60 64 56 34 54 48 25 24 40 55 25 26 48 30 32 47 65 38 46 46 46 51 64 64 57 58 53 60 45 52 47 43 29 51 50 49
12 22 34 10 28 13 41 61 60 63 56 54 53 37 57 56 26 25 64 31 53 40 53 62 37 46 45 53 56 56 61 58 58 57 64 53 52 51 39 34 50 46 56
11 38 51 17 13 25 63 26 44 35 68 53 51 35 43 63 60 58 60 56 38 32 65 56 36 56 34 34 35 57 51 57 57 60 52 53 51 50 51 43 34 39 54
12 63 18 11 30 9 14 26 64 27 41 67 42 59 44 57 55 62 74 48 34 35 46 55 47 50 45 38 37 39 45 45 56 53 52 52 54 56 54 34 31 55 55
19 19 33 10 11 9 13 61 35 37 40 57 63 67 43 71 54 80 72 65 49 61 54 40 46 49 50 50 56 54 51 49 51 52 53 57 58 37 44 39 57 48 56
46 35 13 13 8 6 8 12 23 12 14 24 31 29 77 70 65 60 68 65 59 58 47 44 44 46 46 53 50 54 53 52 53 54 55 55 44 36 43 62 49 50 51
64 76 17 17 11 11 21 14 13 14 18 19 19 22 80 71 30 32 42 51 49 56 46 47 45 50 47 53 55 50 57 54 53 51 54 34 50 54 47 62 50 52 60
24 81 77 17 18 15 15 15 18 16 17 19 54 67 28 46 36 36 67 57 55 45 49 47 48 50 55 54 53 56 54 57 53 56 57 57 54 48 49 50 54 66 58
22 33 40 18 21 18 20 20 19 24 35 24 34 33 33 54 34 48 40 47 44 47 47 47 47 56 58 57 58 57 57 55 57 59 50 50 63 53 51 58 57 59 60
35 44 36 23 22 22 24 25 22 25 30 26 32 35 69 41 46 64 48 51 51 51 49 49 50 57 58 56 58 60 59 58 59 59 57 57 61 62 55 59 63 66 65
36 72 70 69 38 21 25 27 24 59 33 41 34 45 35 41 45 58 47 50 46 47 55 49 47 56 53 56 57 60 62 62 62 56 57 65 65 52 57 68 67 61 61
34 36 37 38 24 24 53 44 53 33 38 56 61 72 36 42 51 50 48 45 47 47 49 48 50 48 52 58 56 59 60 60 60 64 59 64 65 57 70 71 71 71 70
44 52 38 62 52 56 58 59 64 43 39 42 38 55 58 47 52 48 46 47 46 49 55 55 51 54 56 58 58 59 59 64 64 62 59 64 73 74 75 72 75 73 79
43 46 48 47 59 47 63 67 36 35 49 42 53 53 53 45 45 46 46 47 49 51 52 54 55 56 59 61 65 67 69 61 63 61 68 69 71 73 76 77 83 77 85
43 42 50 50 41 69 36 35 31 43 52 53 53 53 41 42 43 44 45 46 47 49 51 53 55 55 57 60 62 62 62 62 64 66 69 71 72 75 77 79 83 84 85
42 39 37 55 31 53 34 44 40 52 49 48 51 44 39 38 40 44 42 42 43 46 48 51 52 53 53 56 59 61 64 62 62 65 68 71 74 77 78 80 82 84 85
35 46 46 57 53 50 54 47 52 61 46 49 43 41 40 40 45 42 42 44 47 49 50 52 55 57 58 56 57 60 61 67 69 80 73 80 84 79 87 82 91 95 87
42 54 43 33 54 59 53 51 55 62 50 63 44 40 45 45 43 46 48 62 51 51 53 58 57 60 67 61 60 61 66 77 71 83 91 88 89 88 92 96 100 98 105
39 41 43 54 53 52 51 47 44 54 45 45 44 46 48 46 49 50 51 55 61 59 61 63 61 61 67 70 76 77 82 87 86 71 83 94 97 98 102 111 113 114 111
42 44 58 62 62 55 46 47 49 44 46 47 47 49 50 64 53 54 57 61 59 61 68 60 72 65 80 66 78 71 74 85 90 90 89 83 87 100 103 109 114 112 102
Wind_Direction
255 252 253 257 252 262 262 260 259 261 263 262 269 265 266 267 267 267 268 272 276 279 271 278 284 286 283 281 278 279 280 281 280 275 278 277 275 272 273 272 270 278 268
256 287 250 256 255 263 251 258 262 267 261 265 270 270 271 272 273 275 276 278 278 276 274 284 283 284 284 282 283 282 281 280 279 277 276 279 278 277 278 273 269 266 265
257 264 273 274 271 242 272 267 266 264 268 271 273 273 264 274 274 273 293 290 282 278 281 282 286 283 280 280 279 279 278 280 280 275 273 280 282 282 280 278 296 280 271
257 258 263 258 268 265 266 265 270 264 263 271 271 274 274 277 279 278 279 282 284 280 282 285 284 281 280 280 280 276 279 277 278 279 279 279 281 283 278 271 272 273 271
262 256 275 259 260 273 266 267 266 263 269 269 268 269 274 275 287 276 276 281 284 279 286 286 281 278 280 280 280 281 281 282 282 282 282 285 286 273 268 275 272 274 280
256 256 258 257 258 256 262 262 263 270 283 266 274 293 300 306 275 281 281 281 281 281 284 284 281 279 280 282 283 283 280 278 279 284 286 287 286 263 270 272 282 276 282
247 254 266 257 256 264 264 268 269 270 265 270 269 268 295 274 283 300 300 277 278 282 282 283 283 281 282 283 283 279 278 283 283 284 286 279 264 278 271 299 268 276 276
268 254 262 281 260 297 266 269 271 273 274 278 277 269 275 279 296 302 284 281 281 279 284 281 282 283 284 282 281 270 277 281 282 286 284 254 256 265 274 292 275 280 272
265 260 259 262 295 274 264 277 272 263 276 280 275 275 271 283 283 285 280 290 283 295 284 282 283 279 285 287 290 275 281 280 284 286 254 258 253 280 281 280 297 302 268
246 254 259 274 261 302 303 281 272 287 269 277 266 278 271 279 277 282 296 278 288 284 284 286 281 276 278 284 287 290 288 287 285 256 249 250 255 260 270 297 302 265 268
267 253 252 263 269 286 301 269 280 268 271 276 279 283 277 285 274 295 292 290 287 284 288 283 277 285 275 277 279 278 287 289 256 253 254 258 267 289 280 297 265 281 270
257 251 251 270 275 306 310 317 294 313 324 305 289 291 291 291 286 286 291 293 289 288 281 280 279 282 280 283 280 283 289 288 270 257 260 261 275 294 294 263 293 294 297
251 252 253 259 270 284 290 271 307 305 304 306 300 297 292 292 302 304 301 298 288 286 278 285 277 287 288 288 279 291 287 286 292 280 269 294 287 285 291 260 294 295 270
259 253 257 258 270 266 274 287 284 286 276 287 288 290 301 295 307 302 297 291 288 278 286 279 290 290 284 275 287 288 279 288 271 289 288 284 284 289 291 295 282 266 280
257 260 257 256 268 267 274 270 281 281 281 293 304 292 300 294 303 296 298 304 292 288 291 285 278 284 284 279 279 285 283 283 288 287 279 282 264 283 293 288 287 286 286
250 256 262 261 258 261 274 280 278 286 287 293 297 300 288 297 296 294 290 289 295 295 293 295 295 281 279 276 279 282 284 283 283 283 286 284 284 285 293 285 287 286 286
257 254 254 258 268 262 269 273 282 280 285 285 294 295 299 295 301 291 286 282 281 282 278 283 284 293 277 291 278 280 281 283 284 284 287 285 287 295 297 286 284 279 282
260 260 264 267 265 268 268 279 276 279 282 282 284 289 293 299 294 287 286 280 279 282 282 285 283 284 281 288 280 277 288 287 283 286 290 284 284 295 282 281 282 282 282
256 255 260 259 266 266 268 272 273 284 296 280 290 295 284 299 286 286 281 281 281 284 284 284 287 284 279 279 281 282 284 287 287 289 293 290 283 282 284 285 283 282 283
257 261 264 262 262 271 265 272 284 289 291 280 281 302 282 286 286 285 286 286 287 288 289 288 288 286 282 282 280 280 280 290 288 293 287 286 285 283 281 281 279 285 281
259 263 266 267 271 268 274 281 286 298 294 274 275 279 290 291 288 287 288 291 291 288 288 288 288 289 291 292 292 291 291 292 291 288 287 285 284 282 280 280 279 280 282
261 264 266 267 271 272 275 283 289 293 268 270 272 277 287 290 291 288 292 293 292 293 295 295 295 294 293 294 294 294 296 294 289 291 291 289 289 287 286 285 283 280 279
263 267 262 265 273 269 268 258 275 288 265 270 272 278 281 286 282 287 289 290 291 292 292 292 290 291 294 291 290 290 292 290 289 299 284 291 292 283 288 283 289 288 288
255 264 250 271 270 272 275 286 288 278 268 281 270 277 277 280 287 289 289 293 290 285 284 284 295 296 298 289 288 283 288 292 289 299 300 298 296 294 293 291 290 287 288
255 245 250 271 275 279 279 286 254 270 266 269 270 271 274 284 282 285 285 281 281 296 281 295 292 292 295 294 300 299 297 294 293 281 292 290 293 293 292 288 286 285 286
246 248 269 271 273 271 252 253 265 263 266 267 269 272 279 288 284 289 292 279 289 288 295 291 296 290 295 287 294 287 289 294 296 294 290 281 280 280 283 285 285 282 280